Location: Haram ta Haram Freeway
(35.0583°N, 51.4202°E)
Time: 16:49:30
(UTC+03:30)

IRIDIUM 33 DEB - Pass Details

Date: 04 December 2021
Orbit: 663 x 816 km, 86.4° (Epoch: 18 January)

Event Time Altitude Azimuth Distance (km) Brightness Sun altitude
Rises 18:38:53 0° 177° (S) 3,340 ? -21.3°
Reaches altitude 10° 18:41:17 10° 175° (S) 2,409 ? -21.8°
Maximum altitude 18:46:43 78° 90° (E) 834 ? -22.9°
Enters shadow 18:50:46 18° 6° (N) 1,884 ? -23.7°
